Location: Utrecht
(52.0907°N, 5.1214°E)
Time: 23:28:47
(UTC+02:00)

ESTCUBE 1 - Pass Details

Date: 27 June 2022
Orbit: 646 x 657 km, 97.9° (Epoch: 13 August)

Event Time Altitude Azimuth Distance (km) Brightness Sun altitude
Exits shadow 23:23:16 11° 156° (SSE) 1,979 ? -8.7°
Maximum altitude 23:27:33 73° 73° (ENE) 681 ? -9.0°
Drops below altitude 10° 23:32:02 10° 349° (N) 2,062 ? -9.4°
Sets 23:34:16 0° 348° (NNW) 2,979 ? -9.6°
